Mount Pleasant, MI

10:20 PM EDT on October 20, 2017 (GMT -0400)
Mount Pleasant Municipal

Weather History for KMOP - October, 2012

Change the Weather History Date:

Tuesday, October 23, 2012

  Actual Average (KAMN) Record (KAMN)
Temperature  
Mean Temperature 56 °F -  
Max Temperature 58 °F 57 °F 79 °F (1979)
Min Temperature 54 °F 36 °F 19 °F (2003)
Degree Days  
Heating Degree Days 9    
Growing Degree Days 6 (Base 50)    
Moisture  
Dew Point 55 °F    
Average Humidity 98    
Maximum Humidity 99    
Minimum Humidity 94    
Precipitation  
Precipitation 0.52 in - - ()
Sea Level Pressure  
Sea Level Pressure 29.95 in    
Wind  
Wind Speed 4 mph (NE)    
Max Wind Speed 9 mph    
Max Gust Speed -    
Visibility 2 miles    
Events Fog , Rain    
Averages and records for this station are not official NWS values.
T = Trace of Precipitation, MM = Missing Value Source: NWS Daily Summary

Daily Weather History Graph

Daily Weather History Graph

Search for Another Location

Airport or City:

Trip Planner

Search our weather history database for the weather conditions in past years. The results will help you decide how hot, cold, wet, or windy it might be!

Date:

Astronomy

Oct. 23, 2012 Rise Set
Actual Time 8:03 AM EDT 6:42 PM EDT
Civil Twilight 7:34 AM EDT 7:11 PM EDT
Nautical Twilight 7:00 AM EDT 7:44 PM EDT
Astronomical Twilight 6:27 AM EDT 8:17 PM EDT
Moon 3:34 PM EDT (10/23) 1:43 AM EDT (10/23)
Length of Visible Light 11h 36m
Length of Day
10h 38m
Waxing Gibbous, 66% of the Moon is Illuminated
Oct 23
Waxing Gibbous
Oct 29
Full
Nov 6
Last Quarter
Nov 13
New
Nov 20
First Quarter

Hourly Weather History & Observations

Time (EDT) Temp. Dew Point Humidity Pressure Visibility Wind Dir Wind Speed Gust Speed Precip Events Conditions
12:15 AM 55.4 °F 54.5 °F 97% 29.94 in 3.0 mi Calm Calm - 0.03 in Rain Light Rain
12:35 AM 55.4 °F 54.5 °F 97% 29.95 in 2.5 mi East 3.5 mph - 0.06 in   Drizzle
1:15 AM 55.4 °F 54.5 °F 97% 29.93 in 1.8 mi NNE 3.5 mph - 0.01 in Rain Rain
1:35 AM 55.4 °F 54.9 °F 98% 29.93 in 1.5 mi NNE 5.8 mph - 0.03 in Rain Rain
2:15 AM 54.9 °F 54.5 °F 99% 29.92 in 2.0 mi NNE 3.5 mph - 0.03 in Rain Heavy Rain
2:35 AM 54.9 °F 54.3 °F 98% 29.91 in 1.8 mi Calm Calm - 0.09 in   Heavy Drizzle
2:55 AM 55.0 °F 54.5 °F 98% 29.91 in 2.0 mi NNE 4.6 mph - 0.14 in   Heavy Drizzle
3:15 AM 55.2 °F 54.5 °F 97% 29.91 in 2.0 mi NNE 3.5 mph - 0.03 in   Heavy Drizzle
3:35 AM 55.4 °F 54.7 °F 97% 29.90 in 1.5 mi North 3.5 mph - 0.06 in   Drizzle
4:15 AM 55.4 °F 55.0 °F 99% 29.89 in 1.2 mi North 4.6 mph - N/A   Overcast
4:35 AM 55.6 °F 55.2 °F 99% 29.89 in 1.2 mi NNW 3.5 mph - 0.01 in   Overcast
4:55 AM 55.8 °F 55.4 °F 99% 29.90 in 1.5 mi North 4.6 mph - 0.01 in   Overcast
5:15 AM 55.9 °F 55.6 °F 99% 29.90 in 1.5 mi NNE 5.8 mph - N/A   Overcast
5:35 AM 56.1 °F 55.6 °F 98% 29.90 in 1.8 mi North 4.6 mph - N/A   Overcast
5:55 AM 56.1 °F 55.6 °F 98% 29.91 in 1.5 mi Calm Calm - N/A   Overcast
6:15 AM 56.3 °F 55.6 °F 97% 29.92 in 1.5 mi Calm Calm - N/A   Overcast
6:35 AM 56.1 °F 55.4 °F 97% 29.93 in 1.2 mi North 6.9 mph - N/A   Overcast
6:55 AM 56.1 °F 55.4 °F 97% 29.93 in 1.5 mi North 4.6 mph - N/A   Overcast
7:35 AM 55.9 °F 55.4 °F 98% 29.92 in 1.0 mi NNE 9.2 mph - N/A   Overcast
7:55 AM 55.9 °F 55.6 °F 99% 29.93 in 1.0 mi North 5.8 mph - N/A   Overcast
8:15 AM 56.1 °F 55.8 °F 99% 29.94 in 0.8 mi NNE 5.8 mph - N/A   Overcast
8:35 AM 55.9 °F 55.6 °F 99% 29.94 in 0.8 mi NE 4.6 mph - N/A   Overcast
8:55 AM 55.8 °F 55.4 °F 99% 29.93 in 0.5 mi NNE 8.1 mph - N/A Fog Fog
9:15 AM 55.8 °F 55.4 °F 99% 29.93 in 0.8 mi NE 5.8 mph - N/A   Overcast
9:35 AM 55.9 °F 55.6 °F 99% 29.94 in 1.0 mi ENE 5.8 mph - N/A   Overcast
9:55 AM 55.9 °F 55.6 °F 99% 29.94 in 1.0 mi ENE 4.6 mph - N/A   Overcast
10:15 AM 56.3 °F 55.8 °F 98% 29.96 in 1.2 mi NE 4.6 mph - N/A   Overcast
10:35 AM 56.3 °F 55.6 °F 97% 29.97 in 1.2 mi NE 8.1 mph - N/A   Overcast
10:55 AM 56.3 °F 55.6 °F 97% 29.98 in 1.2 mi ENE 4.6 mph - N/A   Overcast
11:15 AM 56.3 °F 55.6 °F 97% 30.00 in 1.2 mi East 3.5 mph - N/A   Overcast
11:55 AM 56.7 °F 56.3 °F 99% 29.99 in 1.2 mi Calm Calm - N/A   Light Drizzle
12:15 PM 56.8 °F 56.3 °F 98% 29.99 in 1.8 mi NNE 3.5 mph - N/A   Overcast
12:35 PM 56.8 °F 56.3 °F 98% 29.99 in 1.8 mi NE 3.5 mph - N/A   Overcast
12:55 PM 56.8 °F 56.3 °F 98% 29.98 in 1.2 mi Calm Calm - N/A   Overcast
1:15 PM 57.2 °F 56.7 °F 98% 29.98 in 1.2 mi NE 4.6 mph - N/A   Overcast
1:35 PM 57.2 °F 56.7 °F 98% 29.98 in 2.5 mi Calm Calm - N/A   Overcast
1:55 PM 57.6 °F 57.0 °F 98% 29.96 in 4.0 mi NE 3.5 mph - N/A   Overcast
2:15 PM 57.6 °F 57.0 °F 98% 29.96 in 4.0 mi NE 5.8 mph - N/A   Overcast
2:35 PM 58.1 °F 57.0 °F 96% 29.96 in 5.0 mi NNE 3.5 mph - N/A   Overcast
2:55 PM 58.3 °F 57.2 °F 96% 29.94 in 5.0 mi NE 8.1 mph - N/A   Overcast
3:15 PM 58.3 °F 57.0 °F 96% 29.93 in 4.0 mi NE 4.6 mph - N/A   Overcast
3:35 PM 57.9 °F 56.5 °F 95% 29.95 in 5.0 mi NE 4.6 mph - N/A   Overcast
3:55 PM 57.7 °F 56.3 °F 95% 29.96 in 5.0 mi Calm Calm - N/A   Overcast
4:15 PM 58.1 °F 56.5 °F 94% 29.96 in 5.0 mi East 3.5 mph - N/A   Overcast
4:35 PM 58.1 °F 56.7 °F 95% 29.95 in 5.0 mi ENE 5.8 mph - N/A   Overcast
4:55 PM 57.7 °F 56.5 °F 96% 29.95 in 5.0 mi NE 5.8 mph - N/A   Overcast
5:15 PM 57.4 °F 56.3 °F 96% 29.96 in 3.0 mi NE 3.5 mph - N/A   Overcast
5:35 PM 56.7 °F 55.9 °F 97% 29.96 in 1.5 mi NE 6.9 mph - N/A   Overcast
5:55 PM 56.5 °F 55.8 °F 97% 29.97 in 1.0 mi NE 5.8 mph - N/A   Overcast
6:15 PM 56.3 °F 55.6 °F 97% 29.97 in 1.2 mi NE 5.8 mph - N/A Rain Light Rain
6:35 PM 56.1 °F 55.4 °F 97% 30.00 in 1.5 mi Calm Calm - N/A Rain Rain
6:55 PM 55.6 °F 55.0 °F 98% 29.98 in 2.0 mi ENE 5.8 mph - 0.03 in Rain Heavy Rain
7:15 PM 55.4 °F 54.9 °F 98% 29.98 in 3.0 mi East 5.8 mph - 0.02 in Rain Rain
7:35 PM 55.4 °F 54.9 °F 98% 29.97 in 4.0 mi East 5.8 mph - 0.04 in Rain Rain
7:55 PM 55.4 °F 54.7 °F 97% 29.96 in 5.0 mi East 8.1 mph - 0.07 in Rain Rain
8:15 PM 55.4 °F 54.7 °F 97% 29.96 in 7.0 mi East 6.9 mph - 0.02 in   Light Drizzle
8:35 PM 55.4 °F 54.5 °F 97% 29.98 in 7.0 mi Calm Calm - 0.05 in Rain Rain
8:55 PM 55.4 °F 54.5 °F 97% 29.99 in 7.0 mi ENE 4.6 mph - 0.08 in Rain Light Rain
9:15 PM 55.2 °F 54.5 °F 97% 29.99 in 7.0 mi ENE 3.5 mph - 0.03 in   Overcast
9:35 PM 55.0 °F 54.5 °F 98% 30.00 in 7.0 mi NE 3.5 mph - 0.06 in   Overcast
9:55 PM 54.9 °F 54.5 °F 99% 29.99 in 4.0 mi NE 3.5 mph - 0.08 in   Overcast
10:15 PM 54.9 °F 54.5 °F 99% 30.00 in 2.5 mi ENE 3.5 mph - 0.01 in   Overcast
10:35 PM 54.7 °F 54.1 °F 98% 29.99 in 1.8 mi ENE 3.5 mph - 0.02 in   Overcast
10:55 PM 54.7 °F 54.1 °F 98% 29.99 in 1.2 mi NE 3.5 mph - 0.02 in   Overcast
11:35 PM 54.7 °F 54.3 °F 99% 29.99 in 0.5 mi NE 3.5 mph - N/A Fog Fog
11:55 PM 54.5 °F 54.3 °F 99% 29.99 in 0.2 mi Calm Calm - N/A Fog Fog